Location: Waco, TX
(31.5480°N, 97.1670°W)
Time: 15:11:30
(UTC-05:00)

ISS - Pass Details

Date: 20 September 2019
Orbit: 411 x 421 km, 51.6° (Epoch: 17 September)

Event Time Altitude Azimuth Distance (km) Brightness Sun altitude
Rises 20:29:03 0° 248° (WSW) 2,333 1.1 -13.8°
Reaches altitude 10° 20:31:20 10° 261° (W) 1,473 0.2 -14.2°
Maximum altitude 20:34:12 27° 321° (NW) 831 -1.7 -14.8°
Drops below altitude 10° 20:37:04 10° 21° (NNE) 1,477 -1.1 -15.4°
Enters shadow 20:38:07 - 29° (NNE) 1,856 -0.7 -15.7°
Sets 20:39:22 0° 34° (NE) 2,341 - -15.9°
